Location: Córrego Montividiu
(13.2496°S, 48.8603°W)
Time: 18:26:07
(UTC+00:00)

Cosmos 2221 - Pass Details

Date: 11 March 2026
Orbit: 567 x 589 km, 82.5° (Epoch: 17 April)

Event Time Altitude Azimuth Distance (km) Brightness Sun altitude
Rises 22:38:43 0° 348° (NNW) 2,748 5.9 -17.0°
Reaches altitude 10° 22:40:55 10° 344° (NNW) 1,857 5.1 -17.5°
Maximum altitude 22:44:56 55° 265° (W) 683 3.1 -18.5°
Drops below altitude 10° 22:48:59 10° 187° (S) 1,877 5.2 -19.5°
Sets 22:51:13 0° 182° (S) 2,781 6.0 -20.0°
